Overview Statistics Trail Chart Weather Telemetry Raw packets
 

This is the latest recevied weather packets stored in our database for station/object E24QND-2. If no packets are shown the sender has not sent any weather packets the latest 10 day(s).

<< 1 2 3 4 5 >>
Time Temp. Humidity Pressure Rain* Wind** Luminosity Snow
1788682781 27.22° C 99% - - - 0 W/m² -
1788681556 27.78° C 1% - - - 0 W/m² -
1788680331 29.44° C 96% - - - 0 W/m² -
1788679107 33.89° C 99% - - - 0 W/m² -
1788677882 35.56° C 99% - - - 0 W/m² -
1788676658 35° C 99% - - - 0 W/m² -
1788675433 34.44° C 99% - - - 0 W/m² -
1788674208 34.44° C 99% - - - 0 W/m² -
1788672984 35° C 99% - - - 0 W/m² -
1788671759 35.56° C 63% - - - 0 W/m² -
1788670535 32.22° C 1% - - - 0 W/m² -
1788669340 32.78° C 1% - - - 0 W/m² -
1788668085 32.78° C 18% - - - 0 W/m² -
1788666861 30° C 1% - - - 0 W/m² -
1788665636 30° C 15% - - - 0 W/m² -
1788664412 28.33° C 99% - - - 0 W/m² -
1788663187 28.89° C 99% - - - 0 W/m² -
1788661963 28.33° C 1% - - - 0 W/m² -
1788660738 28.33° C 99% - - - 0 W/m² -
1788659514 28.33° C 1% - - - 0 W/m² -
1788658289 27.78° C 99% - - - 0 W/m² -
1788657065 27.22° C 1% - - - 0 W/m² -
1788655840 26.67° C 1% - - - 0 W/m² -
1788654615 26.67° C 99% - - - 0 W/m² -
1788653391 26.67° C 99% - - - 0 W/m² -

* Rain since midnight (hover to see other rain measurements)
** Current wind speed in m/s (hover to see current wind gust speed)